Weather History for Crestview, FL

Change the Weather History Date:

Saturday, November 12, 2011

  Actual Average Record
Temperature  
Mean Temperature 47 °F -  
Max Temperature 66 °F - - ()
Min Temperature 28 °F - - ()
Degree Days  
Heating Degree Days 18    
Moisture  
Dew Point 35 °F    
Average Humidity 68    
Maximum Humidity 92    
Minimum Humidity 18    
Precipitation  
Precipitation 0.00 in - - ()
Sea Level Pressure  
Sea Level Pressure 30.27 in    
Wind  
Wind Speed 2 mph (ESE)    
Max Wind Speed 9 mph    
Max Gust Speed -    
Visibility 10 miles    
Events      
T = Trace of Precipitation, MM = Missing Value Source: NWS Daily Summary

Daily Weather History Graph

Daily Weather History Graph

Search for Another Location

Airport:

Trip Planner

Search our weather history database for the weather conditions in past years. The results will help you decide how hot, cold, wet, or windy it might be!

Date:

Astronomy

Nov. 12, 2011 Rise Set
Actual Time 6:09 AM CST 4:50 PM CST
Civil Twilight 5:44 AM CST 5:15 PM CST
Nautical Twilight 5:15 AM CST 5:44 PM CST
Astronomical Twilight 4:46 AM CST 6:13 PM CST
Moon 6:13 PM CST (11/12) 7:44 AM CST (11/12)
Length of Visible Light 11h 31m
Length of Day
10h 40m
Full, 97% of the Moon is Illuminated
Nov 12
Full
Nov 18
Last Quarter
Nov 25
New
Dec 2
First Quarter
Dec 10
Full

Hourly Weather History & Observations

Time (CST) Temp. Windchill Dew Point Humidity Pressure Visibility Wind Dir Wind Speed Gust Speed Precip Events Conditions
12:55 AM 32.2 °F - 29.8 °F 91% 30.24 in 10.0 mi Calm Calm - N/A   Clear
1:55 AM 31.6 °F - 29.7 °F 92% 30.24 in 10.0 mi Calm Calm - N/A   Clear
2:55 AM 29.8 °F 26.3 °F 27.7 °F 92% 30.25 in 10.0 mi North 3.5 mph - N/A   Clear
3:55 AM 29.5 °F - 27.3 °F 92% 30.26 in 10.0 mi Calm Calm - N/A   Clear
4:55 AM 28.6 °F - 26.6 °F 92% 30.27 in 10.0 mi Calm Calm - N/A   Clear
5:55 AM 28.9 °F - 26.6 °F 91% 30.28 in 10.0 mi Calm Calm - N/A   Clear
6:55 AM 30.4 °F - 28.2 °F 92% 30.30 in 10.0 mi Calm Calm - N/A   Clear
7:55 AM 41.4 °F - 31.3 °F 67% 30.31 in 10.0 mi Calm Calm - N/A   Clear
8:55 AM 56.3 °F - 27.1 °F 33% 30.33 in 10.0 mi ENE 3.5 mph - N/A   Clear
9:55 AM 63.0 °F - 24.1 °F 23% 30.33 in 10.0 mi SE 4.6 mph - N/A   Clear
10:55 AM 64.4 °F - 19.0 °F 18% 30.31 in 10.0 mi Variable 5.8 mph - N/A   Clear
11:55 AM 66.0 °F - 21.4 °F 18% 30.28 in 10.0 mi Calm Calm - N/A   Partly Cloudy
12:55 PM 66.6 °F - 28.9 °F 24% 30.26 in 10.0 mi Variable 4.6 mph - N/A   Clear
2:55 PM 63.5 °F - 40.8 °F 43% 30.26 in 10.0 mi SSE 9.2 mph - N/A   Clear
3:55 PM 62.1 °F - 45.0 °F 53% 30.25 in 10.0 mi South 4.6 mph - N/A   Partly Cloudy
4:55 PM 59.0 °F - 46.6 °F 63% 30.25 in 10.0 mi Calm Calm - N/A   Clear
5:55 PM 52.5 °F - 45.9 °F 78% 30.25 in 10.0 mi Calm Calm - N/A   Mostly Cloudy
6:55 PM 50.0 °F - 45.3 °F 84% 30.25 in 10.0 mi Calm Calm - N/A   Scattered Clouds
7:55 PM 48.4 °F - 45.3 °F 89% 30.25 in 10.0 mi Calm Calm - N/A   Scattered Clouds
8:55 PM 48.0 °F - 44.4 °F 87% 30.24 in 10.0 mi Calm Calm - N/A   Overcast
9:55 PM 52.2 °F - 45.7 °F 79% 30.23 in 10.0 mi East 5.8 mph - N/A   Mostly Cloudy
10:55 PM 46.4 °F - 43.3 °F 89% 30.24 in 10.0 mi Calm Calm - N/A   Clear
11:55 PM 49.8 °F - 44.6 °F 82% 30.22 in 10.0 mi ESE 5.8 mph - N/A   Clear